,,PA_Meas_PMT16A,,PR_Meas_QMR101_102,,RH_Meas_QMH101,,SR_Meas_QMS101,,TA_Meas_QMH101,,GenWind,,GenWind,
time,status,PA,status,PR,status,RH,status,SR,status,TA,status,DirAvg,status,SpdAvg,
2015-09-23, 07:25:04,INVALID - VALUE NOT AVAILABLE,0,VALID,0,VALID,100.233,VALID,78.6469,VALID,20.3269,INVALID,360,INVALID,0,
2015-09-23, 07:26:04,VALID,919.699,VALID,0,VALID,100.24,VALID,79.6139,VALID,20.3854,VALID,127,VALID,0,
2015-09-23, 07:27:04,VALID,919.708,VALID,0,VALID,100.233,VALID,78.9692,VALID,20.4228,VALID,127,VALID,0,
2015-09-23, 08:18:04,VALID,920.327,VALID,0,VALID,100.294,VALID,90.1431,VALID,20.4813,VALID,127,VALID,0,
2015-09-23, 08:19:04,VALID,920.325,VALID,0,VALID,100.286,VALID,91.4324,VALID,20.5399,VALID,127,VALID,0,
2015-09-23, 08:20:04,VALID,920.326,VALID,0,VALID,100.278,VALID,89.2836,VALID,20.5399,VALID,127,VALID,0,
2015-09-23, 08:21:04,VALID,920.358,VALID,0,VALID,100.301,VALID,83.3743,VALID,20.5204,VALID,111,VALID,0,
2015-09-23, 08:46:04,VALID,920.599,VALID,0,VALID,100.347,VALID,82.5148,VALID,20.5414,INVALID,360,INVALID,0,
2015-09-23, 08:57:04,VALID,920.649,VALID,0,VALID,100.332,VALID,89.7134,VALID,20.5009,VALID,3,VALID,0,
2015-09-23, 08:58:04,VALID,920.657,VALID,0,VALID,100.385,VALID,96.697,VALID,20.4439,VALID,344,VALID,0.0289063,
2015-09-23, 08:59:04,VALID,920.663,VALID,0,VALID,100.4,VALID,101.962,VALID,20.3643,VALID,10,VALID,1.89922,
2015-09-23, 09:00:04,VALID,920.656,VALID,0,VALID,100.385,VALID,111.846,VALID,20.3253,VALID,18,VALID,1.11016,
2015-09-23, 09:01:04,VALID,920.631,VALID,0,VALID,100.385,VALID,117.863,VALID,20.3659,VALID,15,VALID,0.741016,
2015-09-23, 09:02:04,VALID,920.644,VALID,0,VALID,100.385,VALID,130.756,VALID,20.3269,VALID,17,VALID,1.51602,
2015-09-23, 09:03:04,VALID,920.614,VALID,0,VALID,100.355,VALID,152.781,VALID,20.3643,VALID,359,VALID,1.27617,
2015-09-23, 09:04:04,VALID,920.589,VALID,0,VALID,100.393,VALID,174.807,VALID,20.3838,VALID,18,VALID,1.66172,
2015-09-23, 09:05:04,VALID,920.621,VALID,0,VALID,100.385,VALID,182.113,VALID,20.4423,VALID,355,VALID,0.464453,
2015-09-23, 09:06:04,VALID,920.646,VALID,0,VALID,100.347,VALID,171.798,VALID,20.5414,VALID,360,VALID,0.0105469,
2015-09-23, 09:07:04,VALID,920.656,VALID,0,VALID,100.332,VALID,162.344,VALID,20.5399,VALID,1,VALID,0,
2015-09-23, 09:08:04,VALID,920.668,VALID,0,VALID,100.37,VALID,163.096,VALID,20.4423,VALID,326,VALID,0,
2015-09-23, 09:09:04,VALID,920.651,VALID,0,VALID,100.347,VALID,178.352,VALID,20.4423,VALID,326,VALID,0,
2015-09-23, 09:10:04,VALID,920.603,VALID,0,VALID,100.324,VALID,172.765,VALID,20.5399,VALID,348,VALID,0,
2015-09-23, 09:11:04,VALID,920.598,VALID,0,VALID,100.286,VALID,162.773,VALID,20.6374,VALID,32,VALID,0,
2015-09-23, 09:12:04,VALID,920.629,VALID,0,VALID,100.317,VALID,159.013,VALID,20.6179,VALID,15,VALID,0,
2015-09-23, 09:13:04,VALID,920.629,VALID,0,VALID,100.317,VALID,139.888,VALID,20.6163,VALID,32,VALID,0.8125,
2015-09-23, 09:14:04,VALID,920.638,VALID,0,VALID,100.309,VALID,121.194,VALID,20.6569,VALID,2,VALID,0,
2015-09-23, 09:15:04,VALID,920.669,VALID,0,VALID,100.309,VALID,114.855,VALID,20.6959,VALID,358,VALID,0,
2015-09-23, 09:16:04,VALID,920.669,VALID,0,VALID,100.301,VALID,114.532,VALID,20.6764,VALID,16,VALID,0,
2015-09-23, 09:17:04,VALID,920.665,VALID,0,VALID,100.317,VALID,113.78,VALID,20.6959,VALID,22,VALID,0,
2015-09-23, 09:18:04,VALID,920.669,VALID,0,VALID,100.339,VALID,108.516,VALID,20.5968,VALID,25,VALID,0,
2015-09-23, 09:19:04,VALID,920.688,VALID,0,VALID,100.332,VALID,109.805,VALID,20.5789,VALID,25,VALID,0,
2015-09-23, 09:20:04,VALID,920.674,VALID,0,VALID,100.309,VALID,119.904,VALID,20.6569,VALID,25,VALID,0,
2015-09-23, 09:21:04,VALID,920.656,VALID,0,VALID,100.294,VALID,127.855,VALID,20.7349,VALID,25,VALID,0,
2015-09-23, 09:22:04,VALID,920.643,VALID,0,VALID,100.294,VALID,135.591,VALID,20.7333,VALID,35,VALID,0,
2015-09-23, 09:23:04,VALID,920.636,VALID,0,VALID,100.286,VALID,144.186,VALID,20.7544,VALID,29,VALID,0.502344,
2015-09-23, 09:24:04,VALID,920.633,VALID,0,VALID,100.347,VALID,158.798,VALID,20.5773,VALID,25,VALID,0,
2015-09-23, 09:25:04,VALID,920.635,VALID,0,VALID,100.317,VALID,186.84,VALID,20.6569,VALID,25,VALID,0,
2015-09-23, 09:26:04,VALID,920.654,VALID,0,VALID,100.309,VALID,226.271,VALID,20.7154,VALID,24,VALID,0,
2015-09-23, 09:27:04,VALID,920.63,VALID,0,VALID,100.355,VALID,244.536,VALID,20.6374,VALID,6,VALID,1.70391,
2015-09-23, 09:28:04,VALID,920.635,VALID,0,VALID,100.339,VALID,237.66,VALID,20.5414,VALID,338,VALID,1.61992,
2015-09-23, 09:29:04,VALID,920.637,VALID,0,VALID,100.416,VALID,227.99,VALID,20.3464,VALID,3,VALID,1.84687,
2015-09-23, 09:30:04,VALID,920.634,VALID,0,VALID,100.446,VALID,217.676,VALID,20.2863,VALID,7,VALID,0.00195313,
2015-09-23, 09:31:04,VALID,920.643,VALID,0,VALID,100.423,VALID,199.518,VALID,20.3464,VALID,7,VALID,0,
2015-09-23, 09:32:04,VALID,920.647,VALID,0,VALID,100.4,VALID,175.774,VALID,20.4634,VALID,297,VALID,0,
2015-09-23, 09:33:04,VALID,920.679,VALID,0,VALID,100.37,VALID,177.6,VALID,20.5219,VALID,296,VALID,0,
2015-09-23, 09:34:04,VALID,920.675,VALID,0,VALID,100.355,VALID,193.394,VALID,20.5414,VALID,330,VALID,0,
2015-09-23, 09:35:04,VALID,920.702,VALID,0,VALID,100.362,VALID,203.923,VALID,20.4813,VALID,8,VALID,0.657031,
2015-09-23, 09:36:04,VALID,920.673,VALID,0,VALID,100.393,VALID,208.866,VALID,20.4423,VALID,19,VALID,0.139453,
2015-09-23, 09:37:04,VALID,920.686,VALID,0,VALID,100.347,VALID,214.238,VALID,20.5204,VALID,18,VALID,0,
2015-09-23, 09:38:04,VALID,920.703,VALID,0,VALID,100.309,VALID,192.212,VALID,20.6975,VALID,18,VALID,0,
2015-09-23, 09:39:04,VALID,920.705,VALID,0,VALID,100.309,VALID,167.178,VALID,20.6959,VALID,23,VALID,0,
2015-09-23, 09:40:04,VALID,920.732,VALID,0,VALID,100.286,VALID,168.038,VALID,20.7739,VALID,32,VALID,0,
2015-09-23, 09:41:04,VALID,920.742,VALID,0,VALID,100.271,VALID,181.038,VALID,20.8519,VALID,32,VALID,0,
2015-09-23, 09:42:04,VALID,920.714,VALID,0,VALID,100.286,VALID,191.997,VALID,20.8519,VALID,31,VALID,0,
2015-09-23, 09:43:04,VALID,920.734,VALID,0,VALID,100.301,VALID,195.758,VALID,20.7934,VALID,32,VALID,0,
2015-09-23, 09:44:04,VALID,920.739,VALID,0,VALID,100.339,VALID,205.75,VALID,20.6975,VALID,29,VALID,0,
2015-09-23, 09:45:04,VALID,920.72,VALID,0,VALID,100.332,VALID,199.411,VALID,20.7365,VALID,357,VALID,0,
2015-09-23, 09:46:04,VALID,920.731,VALID,0,VALID,100.301,VALID,181.79,VALID,20.7739,VALID,356,VALID,0,
2015-09-23, 09:47:04,VALID,920.756,VALID,0,VALID,100.355,VALID,164.17,VALID,20.6179,VALID,273,VALID,0,
2015-09-23, 09:48:04,VALID,920.742,VALID,0,VALID,100.324,VALID,151.277,VALID,20.6569,VALID,324,VALID,0,
2015-09-23, 09:49:04,VALID,920.728,VALID,0,VALID,100.332,VALID,158.905,VALID,20.6764,VALID,246,VALID,0,
2015-09-23, 09:50:04,VALID,920.715,VALID,0,VALID,100.324,VALID,175.344,VALID,20.7154,VALID,246,VALID,0,
2015-09-23, 09:51:04,VALID,920.682,VALID,0,VALID,100.309,VALID,193.394,VALID,20.7544,VALID,246,VALID,0,
2015-09-23, 09:52:04,VALID,920.65,VALID,0,VALID,100.317,VALID,206.609,VALID,20.795,VALID,246,VALID,0,
2015-09-23, 09:53:04,VALID,920.632,VALID,0,VALID,100.301,VALID,210.907,VALID,20.8519,VALID,315,VALID,0,
2015-09-23, 09:54:04,VALID,920.628,VALID,0,VALID,100.278,VALID,213.163,VALID,20.8714,VALID,325,VALID,0,
2015-09-23, 09:55:04,VALID,920.663,VALID,0,VALID,100.278,VALID,226.164,VALID,20.9105,VALID,319,VALID,0,
2015-09-23, 09:56:04,VALID,920.653,VALID,0,VALID,100.248,VALID,251.95,VALID,20.9885,VALID,319,VALID,0,
2015-09-23, 09:57:04,VALID,920.63,VALID,0,VALID,100.278,VALID,258.826,VALID,20.93,VALID,7,VALID,0,
2015-09-23, 09:58:04,VALID,920.639,VALID,0,VALID,100.256,VALID,220.577,VALID,20.93,VALID,53,VALID,0,
2015-09-23, 09:59:04,VALID,920.659,VALID,0,VALID,100.263,VALID,191.782,VALID,20.9885,VALID,53,VALID,0,
2015-09-23, 10:00:04,VALID,920.655,VALID,0,VALID,100.24,VALID,177.385,VALID,21.008,VALID,53,VALID,0,
2015-09-23, 10:01:04,VALID,920.642,VALID,0,VALID,100.286,VALID,170.294,VALID,20.9105,VALID,320,VALID,0,
2015-09-23, 10:02:04,VALID,920.648,VALID,0,VALID,100.294,VALID,165.244,VALID,20.8714,VALID,320,VALID,0,
2015-09-23, 10:03:04,VALID,920.672,VALID,0,VALID,100.286,VALID,149.451,VALID,20.891,VALID,320,VALID,0,
2015-09-23, 10:04:04,VALID,920.645,VALID,0,VALID,100.271,VALID,140.855,VALID,20.93,VALID,320,VALID,0,
2015-09-23, 10:05:04,VALID,920.646,VALID,0,VALID,100.256,VALID,134.409,VALID,21.008,VALID,322,VALID,0,
2015-09-23, 10:06:04,VALID,920.613,VALID,0,VALID,100.263,VALID,142.36,VALID,20.9869,VALID,322,VALID,0,
2015-09-23, 10:07:04,VALID,920.603,VALID,0,VALID,100.286,VALID,153.533,VALID,20.9674,VALID,352,VALID,0,
2015-09-23, 10:08:04,VALID,920.565,VALID,0,VALID,100.248,VALID,162.129,VALID,21.0275,VALID,352,VALID,0,
2015-09-23, 10:09:04,VALID,920.549,VALID,0,VALID,100.301,VALID,177.278,VALID,20.969,VALID,356,VALID,0,
2015-09-23, 10:10:04,VALID,920.534,VALID,0,VALID,100.309,VALID,188.882,VALID,20.9089,VALID,12,VALID,0,
2015-09-23, 10:11:04,VALID,920.528,VALID,0,VALID,100.317,VALID,203.279,VALID,20.8309,VALID,315,VALID,0,
2015-09-23, 10:12:04,VALID,920.522,VALID,0,VALID,100.332,VALID,249.693,VALID,20.8519,VALID,318,VALID,0,
2015-09-23, 10:13:04,VALID,920.512,VALID,0,VALID,100.332,VALID,275.694,VALID,20.7918,VALID,316,VALID,0,
2015-09-23, 10:14:04,VALID,920.545,VALID,0,VALID,100.332,VALID,279.454,VALID,20.7934,VALID,312,VALID,0,
2015-09-23, 10:15:04,VALID,920.534,VALID,0,VALID,100.347,VALID,306.53,VALID,20.7918,VALID,256,VALID,0,
2015-09-23, 10:16:04,VALID,920.54,VALID,0,VALID,100.339,VALID,311.579,VALID,20.8699,VALID,267,VALID,0,
2015-09-23, 10:17:04,VALID,920.502,VALID,0,VALID,100.355,VALID,319.315,VALID,20.7723,VALID,257,VALID,0,
2015-09-23, 10:18:04,VALID,920.539,VALID,0,VALID,100.294,VALID,273.867,VALID,20.8894,VALID,262,VALID,0,
2015-09-23, 10:19:04,VALID,920.537,VALID,0,VALID,100.294,VALID,218.213,VALID,20.9869,VALID,263,VALID,0,
2015-09-23, 10:20:04,VALID,920.525,VALID,0,VALID,100.278,VALID,190.493,VALID,21.0259,VALID,262,VALID,0,
2015-09-23, 10:21:04,VALID,920.546,VALID,0,VALID,100.256,VALID,185.121,VALID,21.1234,VALID,353,VALID,0,
2015-09-23, 10:22:04,VALID,920.543,VALID,0,VALID,100.309,VALID,202.204,VALID,20.9479,VALID,257,VALID,0,
2015-09-23, 10:23:04,VALID,920.545,VALID,0,VALID,100.332,VALID,241.743,VALID,20.9073,VALID,257,VALID,0,
2015-09-23, 10:24:04,VALID,920.518,VALID,0,VALID,100.324,VALID,265.057,VALID,20.9479,VALID,256,VALID,0,
2015-09-23, 10:25:04,VALID,920.513,VALID,0,VALID,100.332,VALID,252.164,VALID,20.9089,VALID,248,VALID,0,
2015-09-23, 10:26:04,VALID,920.512,VALID,0,VALID,100.339,VALID,237.445,VALID,20.9674,VALID,248,VALID,0,
2015-09-23, 10:27:04,VALID,920.537,VALID,0,VALID,100.355,VALID,204.675,VALID,20.9479,VALID,239,VALID,0,
2015-09-23, 10:28:04,VALID,920.536,VALID,0,VALID,100.332,VALID,176.848,VALID,20.9674,VALID,239,VALID,0,
2015-09-23, 10:29:04,VALID,920.55,VALID,0,VALID,100.4,VALID,155.682,VALID,20.8293,VALID,237,VALID,0,
2015-09-23, 10:30:04,VALID,920.518,VALID,0,VALID,100.393,VALID,149.451,VALID,20.9089,VALID,237,VALID,0,
2015-09-23, 10:31:04,VALID,920.499,VALID,0,VALID,100.393,VALID,148.591,VALID,20.8488,VALID,258,VALID,0,
2015-09-23, 10:32:04,VALID,920.461,VALID,0,VALID,100.393,VALID,153.426,VALID,20.9284,VALID,27,VALID,0,
2015-09-23, 10:33:04,VALID,920.426,VALID,0,VALID,100.408,VALID,188.452,VALID,20.8894,VALID,42,VALID,0,
2015-09-23, 10:34:04,VALID,920.43,VALID,0,VALID,100.37,VALID,199.841,VALID,21.0064,VALID,23,VALID,0,
2015-09-23, 10:35:04,VALID,920.413,VALID,0,VALID,100.324,VALID,228.635,VALID,21.1023,VALID,23,VALID,0,
2015-09-23, 10:36:04,VALID,920.392,VALID,0,VALID,100.332,VALID,244.751,VALID,21.1608,VALID,33,VALID,0,
2015-09-23, 10:37:04,VALID,920.425,VALID,0,VALID,100.339,VALID,217.891,VALID,21.1819,VALID,37,VALID,0,
2015-09-23, 10:38:04,VALID,920.415,VALID,0,VALID,100.393,VALID,182.328,VALID,21.1023,VALID,351,VALID,0,
2015-09-23, 10:39:04,VALID,920.432,VALID,0,VALID,100.431,VALID,170.509,VALID,21.0633,VALID,46,VALID,0,
2015-09-23, 10:40:04,VALID,920.459,VALID,0,VALID,100.423,VALID,166.426,VALID,21.1413,VALID,11,VALID,0,
2015-09-23, 10:41:04,VALID,920.454,VALID,0,VALID,100.454,VALID,170.617,VALID,21.0633,VALID,259,VALID,0,
2015-09-23, 10:42:04,VALID,920.431,VALID,0,VALID,100.515,VALID,168.145,VALID,20.9853,VALID,272,VALID,0,
2015-09-23, 10:43:04,VALID,920.433,VALID,0,VALID,100.492,VALID,164.063,VALID,20.9658,VALID,282,VALID,0,
2015-09-23, 10:44:04,VALID,920.44,VALID,0,VALID,100.545,VALID,153.104,VALID,20.9089,VALID,313,VALID,0,
2015-09-23, 10:45:04,VALID,920.415,VALID,0,VALID,100.568,VALID,150.74,VALID,20.8504,VALID,301,VALID,0,
2015-09-23, 10:46:04,VALID,920.413,VALID,0,VALID,100.522,VALID,146.442,VALID,20.8894,VALID,293,VALID,0,
2015-09-23, 10:47:04,VALID,920.373,VALID,0,VALID,100.507,VALID,132.153,VALID,20.9479,VALID,293,VALID,0,
2015-09-23, 10:48:04,VALID,920.374,VALID,0,VALID,100.484,VALID,120.549,VALID,21.0275,VALID,294,VALID,0,
2015-09-23, 10:49:04,VALID,920.331,VALID,0,VALID,100.461,VALID,107.011,VALID,21.0649,VALID,321,VALID,0,
2015-09-23, 10:50:04,VALID,920.325,VALID,0,VALID,100.469,VALID,102.499,VALID,21.0454,VALID,252,VALID,0,
2015-09-23, 10:51:04,VALID,920.355,VALID,0,VALID,100.591,VALID,108.086,VALID,20.8309,VALID,257,VALID,0.375391,
2015-09-23, 10:52:05,VALID,920.305,VALID,0,VALID,100.629,VALID,114.747,VALID,20.6748,VALID,304,VALID,0.0625,
2015-09-23, 10:53:05,VALID,920.342,VALID,0,VALID,100.629,VALID,107.334,VALID,20.6179,VALID,246,VALID,0,
2015-09-23, 10:54:05,VALID,920.328,VALID,0,VALID,100.644,VALID,113.35,VALID,20.5789,VALID,269,VALID,0,
2015-09-23, 10:55:05,VALID,920.339,VALID,0,VALID,100.637,VALID,137.74,VALID,20.4993,VALID,247,VALID,0,
2015-09-23, 10:56:05,VALID,920.319,VALID,0,VALID,100.644,VALID,202.634,VALID,20.4408,VALID,263,VALID,0,
2015-09-23, 10:57:05,VALID,920.313,VALID,0,VALID,100.637,VALID,235.833,VALID,20.4798,VALID,252,VALID,0,
2015-09-23, 10:58:05,VALID,920.277,VALID,0,VALID,100.576,VALID,201.667,VALID,20.6163,VALID,261,VALID,0,
2015-09-23, 10:59:05,VALID,920.271,VALID,0,VALID,100.629,VALID,184.584,VALID,20.4993,VALID,255,VALID,0,
2015-09-23, 11:00:05,VALID,920.284,VALID,0,VALID,100.606,VALID,163.525,VALID,20.5188,VALID,298,VALID,0,
2015-09-23, 11:01:05,VALID,920.324,VALID,0,VALID,100.621,VALID,159.335,VALID,20.5188,VALID,293,VALID,0,
2015-09-23, 11:02:05,VALID,920.277,VALID,0,VALID,100.614,VALID,154.93,VALID,20.5789,VALID,341,VALID,0,
2015-09-23, 11:03:05,VALID,920.276,VALID,0,VALID,100.606,VALID,144.938,VALID,20.5383,VALID,16,VALID,0,
2015-09-23, 11:04:05,VALID,920.246,VALID,0,VALID,100.583,VALID,133.872,VALID,20.6358,VALID,29,VALID,0,
2015-09-23, 11:05:05,VALID,920.265,VALID,0,VALID,100.56,VALID,120.979,VALID,20.6553,VALID,340,VALID,0,
2015-09-23, 11:06:05,VALID,920.227,VALID,0,VALID,100.568,VALID,113.673,VALID,20.6943,VALID,343,VALID,0,
2015-09-23, 11:07:05,VALID,920.216,VALID,0,VALID,100.545,VALID,113.888,VALID,20.7333,VALID,349,VALID,0,
2015-09-23, 11:08:05,VALID,920.177,VALID,0,VALID,100.53,VALID,119.904,VALID,20.7918,VALID,17,VALID,0,
2015-09-23, 11:09:05,VALID,920.16,VALID,0,VALID,100.515,VALID,122.483,VALID,20.8699,VALID,19,VALID,0.754687,
2015-09-23, 11:10:05,VALID,920.126,VALID,0,VALID,100.538,VALID,122.161,VALID,20.8309,VALID,22,VALID,0.125781,
2015-09-23, 11:11:05,VALID,920.122,VALID,0,VALID,100.53,VALID,122.805,VALID,20.8699,VALID,28,VALID,0,
2015-09-23, 11:12:05,VALID,920.109,VALID,0,VALID,100.545,VALID,130.326,VALID,20.8504,VALID,10,VALID,0,
2015-09-23, 11:13:05,VALID,920.112,VALID,0,VALID,100.538,VALID,133.227,VALID,20.9089,VALID,25,VALID,1.29453,
2015-09-23, 11:14:05,VALID,920.057,VALID,0,VALID,100.599,VALID,140.748,VALID,20.8519,VALID,17,VALID,1.02852,
2015-09-23, 11:15:05,VALID,920.051,VALID,0,VALID,100.568,VALID,141.822,VALID,20.8699,VALID,32,VALID,0.370313,
2015-09-23, 11:16:05,VALID,920.041,VALID,0,VALID,100.522,VALID,145.583,VALID,20.969,VALID,26,VALID,0,
2015-09-23, 11:17:05,VALID,920.027,VALID,0,VALID,100.583,VALID,146.442,VALID,20.8113,VALID,31,VALID,0,
2015-09-23, 11:18:05,VALID,920.024,VALID,0,VALID,100.599,VALID,143.434,VALID,20.8113,VALID,340,VALID,0,
2015-09-23, 11:19:05,VALID,919.984,VALID,0,VALID,100.614,VALID,147.732,VALID,20.8324,VALID,341,VALID,0,
2015-09-23, 11:20:05,VALID,919.985,VALID,0,VALID,100.614,VALID,161.484,VALID,20.8129,VALID,28,VALID,0,
2015-09-23, 11:21:05,VALID,919.946,VALID,0,VALID,100.606,VALID,189.956,VALID,20.8519,VALID,55,VALID,0,
2015-09-23, 11:22:05,VALID,919.964,VALID,0,VALID,100.614,VALID,208.973,VALID,20.8504,VALID,61,VALID,0,
2015-09-23, 11:23:05,VALID,919.951,VALID,0,VALID,100.614,VALID,195.113,VALID,20.9089,VALID,28,VALID,0,
2015-09-23, 11:24:05,VALID,919.956,VALID,0,VALID,100.568,VALID,238.412,VALID,21.0064,VALID,38,VALID,0,
2015-09-23, 11:25:05,VALID,919.968,VALID,0,VALID,100.583,VALID,231.213,VALID,21.047,VALID,20,VALID,0,
2015-09-23, 11:26:05,VALID,919.996,VALID,0,VALID,100.576,VALID,212.411,VALID,21.0844,VALID,14,VALID,0,
2015-09-23, 11:27:05,VALID,919.964,VALID,0,VALID,100.576,VALID,190.063,VALID,21.1624,VALID,67,VALID,0,
2015-09-23, 11:28:05,VALID,919.979,VALID,0,VALID,100.576,VALID,215.312,VALID,21.2015,VALID,51,VALID,0,
2015-09-23, 11:29:05,VALID,919.959,VALID,0,VALID,100.736,VALID,250.983,VALID,20.9674,VALID,9,VALID,0,
2015-09-23, 11:30:05,VALID,919.932,VALID,0,VALID,100.743,VALID,290.951,VALID,20.9674,VALID,331,VALID,0,
2015-09-23, 11:31:05,VALID,919.941,VALID,0,VALID,100.766,VALID,349.076,VALID,20.9089,VALID,227,VALID,0,
2015-09-23, 11:32:05,VALID,919.901,VALID,0,VALID,100.789,VALID,374.325,VALID,21.0064,VALID,7,VALID,0,
2015-09-23, 11:33:05,VALID,919.925,VALID,0,VALID,100.812,VALID,381.631,VALID,20.9674,VALID,324,VALID,0,
2015-09-23, 11:34:05,VALID,919.905,VALID,0,VALID,100.843,VALID,362.936,VALID,20.9479,VALID,320,VALID,0,
2015-09-23, 11:35:05,VALID,919.898,VALID,0,VALID,100.904,VALID,354.448,VALID,20.9105,VALID,310,VALID,0,
2015-09-23, 11:36:05,VALID,919.84,VALID,0,VALID,100.949,VALID,348.002,VALID,20.8309,VALID,276,VALID,0,
2015-09-23, 11:37:05,VALID,919.862,VALID,0,VALID,100.896,VALID,329.737,VALID,20.9089,VALID,318,VALID,0,
2015-09-23, 11:38:05,VALID,919.831,VALID,0,VALID,100.98,VALID,313.836,VALID,20.8699,VALID,358,VALID,0,
2015-09-23, 11:39:05,VALID,919.823,VALID,0,VALID,100.957,VALID,387.11,VALID,20.9089,VALID,30,VALID,0,
2015-09-23, 11:40:05,VALID,919.819,VALID,0,VALID,100.888,VALID,301.372,VALID,21.0844,VALID,6,VALID,0,
2015-09-23, 11:41:05,VALID,919.785,VALID,0,VALID,100.934,VALID,243.247,VALID,21.1039,VALID,9,VALID,0,
2015-09-23, 11:42:05,VALID,919.749,VALID,0,VALID,101.026,VALID,265.595,VALID,21.0064,VALID,4,VALID,1.63711,
2015-09-23, 11:43:05,VALID,919.75,VALID,0,VALID,101.056,VALID,265.702,VALID,20.9674,VALID,18,VALID,0.870703,
2015-09-23, 11:44:05,VALID,919.73,VALID,0,VALID,100.965,VALID,234.222,VALID,21.1234,VALID,344,VALID,0,
2015-09-23, 11:45:05,VALID,919.754,VALID,0,VALID,101.026,VALID,199.411,VALID,21.0844,VALID,316,VALID,0,
2015-09-23, 11:46:05,VALID,919.712,VALID,0,VALID,101.079,VALID,186.518,VALID,21.0064,VALID,271,VALID,0,
2015-09-23, 11:47:05,VALID,919.719,VALID,0,VALID,101.041,VALID,204.783,VALID,21.1039,VALID,272,VALID,0,
2015-09-23, 11:48:05,VALID,919.665,VALID,0,VALID,101.056,VALID,191.782,VALID,21.1819,VALID,18,VALID,0,
2015-09-23, 11:49:05,VALID,919.619,VALID,0,VALID,101.216,VALID,154.5,VALID,21.086,VALID,39,VALID,0,
2015-09-23, 11:50:05,VALID,919.585,VALID,0,VALID,101.201,VALID,127.64,VALID,21.0844,VALID,32,VALID,0,
2015-09-23, 11:51:05,VALID,919.555,VALID,0,VALID,101.201,VALID,111.739,VALID,21.1429,VALID,31,VALID,0,
2015-09-23, 11:52:05,VALID,919.493,VALID,0,VALID,101.208,VALID,115.499,VALID,21.2015,VALID,31,VALID,0,
2015-09-23, 11:53:05,VALID,919.47,VALID,0,VALID,101.231,VALID,116.251,VALID,21.221,VALID,14,VALID,0,
2015-09-23, 11:54:05,VALID,919.45,VALID,0,VALID,101.277,VALID,114.532,VALID,21.1819,VALID,34,VALID,0,
2015-09-23, 11:55:05,VALID,919.461,VALID,0,VALID,101.247,VALID,121.838,VALID,21.2015,VALID,15,VALID,0,
2015-09-23, 11:56:05,VALID,919.402,VALID,0,VALID,101.239,VALID,137.74,VALID,21.3006,VALID,27,VALID,0,
2015-09-23, 11:57:05,VALID,919.39,VALID,0,VALID,101.262,VALID,141.93,VALID,21.3185,VALID,13,VALID,0,
2015-09-23, 11:58:05,VALID,919.336,VALID,0,VALID,101.407,VALID,141.07,VALID,21.1624,VALID,16,VALID,0,
2015-09-23, 11:59:05,VALID,919.296,VALID,0,VALID,101.414,VALID,133.227,VALID,21.1429,VALID,31,VALID,0,
2015-09-23, 12:00:05,VALID,919.318,VALID,0,VALID,101.445,VALID,112.813,VALID,21.1624,VALID,14,VALID,0,
2015-09-23, 12:01:05,VALID,919.298,VALID,0,VALID,101.506,VALID,106.152,VALID,21.1234,VALID,10,VALID,0,
2015-09-23, 12:02:05,VALID,919.316,VALID,0,VALID,101.491,VALID,103.144,VALID,21.1234,VALID,15,VALID,0,
2015-09-23, 12:03:05,VALID,919.286,VALID,0,VALID,101.452,VALID,104.648,VALID,21.2015,VALID,4,VALID,0,
2015-09-23, 12:04:05,VALID,919.294,VALID,0,VALID,101.414,VALID,112.491,VALID,21.2795,VALID,23,VALID,0,
2015-09-23, 12:05:05,VALID,919.277,VALID,0,VALID,101.529,VALID,117.003,VALID,21.1624,VALID,20,VALID,0,
2015-09-23, 12:06:05,VALID,919.274,VALID,0,VALID,101.559,VALID,123.235,VALID,21.1624,VALID,17,VALID,0,
2015-09-23, 12:07:05,VALID,919.228,VALID,0,VALID,101.651,VALID,122.161,VALID,21.047,VALID,21,VALID,0,
2015-09-23, 12:08:05,VALID,919.216,VALID,0,VALID,101.613,VALID,113.995,VALID,21.0454,VALID,24,VALID,0,
2015-09-23, 12:09:05,VALID,919.171,VALID,0,VALID,101.613,VALID,121.194,VALID,21.0259,VALID,31,VALID,0,
2015-09-23, 12:10:05,VALID,919.163,VALID,0,VALID,101.635,VALID,136.773,VALID,21.0064,VALID,357,VALID,0.425781,
2015-09-23, 12:11:05,VALID,919.174,VALID,0,VALID,101.62,VALID,137.202,VALID,21.0259,VALID,359,VALID,0.598828,
2015-09-23, 12:12:05,VALID,919.152,VALID,0,VALID,101.62,VALID,137.31,VALID,20.9869,VALID,348,VALID,0,
2015-09-23, 12:13:05,VALID,919.118,VALID,0,VALID,101.635,VALID,136.665,VALID,20.9869,VALID,22,VALID,0.04375,
2015-09-23, 12:14:05,VALID,919.118,VALID,0,VALID,101.696,VALID,125.276,VALID,20.8894,VALID,35,VALID,2.44062,
2015-09-23, 12:15:05,VALID,919.112,VALID,0,VALID,101.628,VALID,124.739,VALID,20.9479,VALID,15,VALID,0.915234,
2015-09-23, 12:16:05,VALID,919.089,VALID,0,VALID,101.59,VALID,118.4,VALID,20.9869,VALID,17,VALID,0,
2015-09-23, 12:17:05,VALID,919.1,VALID,0,VALID,101.651,VALID,107.334,VALID,20.8894,VALID,349,VALID,0.0195313,
2015-09-23, 12:18:05,VALID,919.073,VALID,0,VALID,101.696,VALID,114.747,VALID,20.8504,VALID,6,VALID,0,
2015-09-23, 12:19:05,VALID,919.062,VALID,0,VALID,101.681,VALID,131.83,VALID,20.8309,VALID,6,VALID,0,
2015-09-23, 12:20:05,VALID,919.074,VALID,0,VALID,101.727,VALID,144.831,VALID,20.7723,VALID,8,VALID,1.60156,
2015-09-23, 12:21:05,VALID,919.072,VALID,0,VALID,101.689,VALID,150.525,VALID,20.7739,VALID,53,VALID,1.45977,
2015-09-23, 12:22:05,VALID,919.066,VALID,0,VALID,101.613,VALID,160.302,VALID,20.8894,VALID,30,VALID,0.135156,
2015-09-23, 12:23:05,VALID,919.089,VALID,0,VALID,101.552,VALID,172.228,VALID,21.008,VALID,22,VALID,0,
2015-09-23, 12:24:05,VALID,919.089,VALID,0,VALID,101.574,VALID,185.229,VALID,20.9885,VALID,329,VALID,0,
2015-09-23, 12:25:05,VALID,919.083,VALID,0,VALID,101.635,VALID,205.535,VALID,20.9479,VALID,354,VALID,0,
2015-09-23, 12:26:05,VALID,919.071,VALID,0,VALID,101.635,VALID,220.899,VALID,20.9869,VALID,338,VALID,0.0121094,
2015-09-23, 12:27:05,VALID,919.035,VALID,0,VALID,101.582,VALID,233.47,VALID,21.086,VALID,23,VALID,0,
2015-09-23, 12:28:05,VALID,919.046,VALID,0,VALID,101.552,VALID,252.702,VALID,21.221,VALID,345,VALID,0,
2015-09-23, 12:29:05,VALID,918.987,VALID,0,VALID,101.635,VALID,264.413,VALID,21.1624,VALID,359,VALID,0,
2015-09-23, 12:30:05,VALID,918.958,VALID,0,VALID,101.666,VALID,270.859,VALID,21.1429,VALID,18,VALID,0.00664063,
2015-09-23, 12:31:05,VALID,918.949,VALID,0,VALID,101.757,VALID,273.76,VALID,21.1039,VALID,14,VALID,0.01875,
2015-09-23, 12:32:05,VALID,918.914,VALID,0,VALID,101.856,VALID,268.066,VALID,21.086,VALID,37,VALID,0,
2015-09-23, 12:33:05,VALID,918.913,VALID,0,VALID,101.811,VALID,258.074,VALID,21.1039,VALID,326,VALID,0.0941406,
2015-09-23, 12:34:05,VALID,918.895,VALID,0,VALID,101.773,VALID,260.222,VALID,21.1445,VALID,15,VALID,0,